Regional Weather Roundup
Issued by NWS

Home | Current Version | Previous Version | Graphics & Text | Print | Product List | Glossary On
Versions: 1 2 3 4 5 6 7 8 9 10 11 12 13 14 15 16 17 18 19 20 21 22 23 24 25 26 27 28 29 30 31 32 33 34 35 36 37 38 39 40 41 42 43 44 45 46 47 48 49 50
000
ASUS43 KFSD 230402
RWRSD

WEATHER ROUNDUP FOR SOUTH DAKOTA
NATIONAL WEATHER SERVICE SIOUX FALLS SD
1000 PM CST SAT NOV 22 2014

NOTE: "FAIR" INDICATES FEW OR NO CLOUDS BELOW 12,000 FEET WITH NO
SIGNIFICANT WEATHER AND/OR OBSTRUCTIONS TO VISIBILITY.


SDZ001>005-009-010-012>017-230500-
NORTHWEST AND NORTH CENTRAL SOUTH DAKOTA

CITY           SKY/WX    TMP DP  RH WIND       PRES   REMARKS
BUFFALO          N/A     41  33  73 W14       29.37S
FAITH            N/A     40  30  67 S3        29.41R
MOBRIDGE       CLOUDY    36  32  85 S3        29.35R
$$

SDZ012>016-024>037-041>051-057-063-072>074-230500-
SOUTHWEST AND SOUTH CENTRAL SOUTH DAKOTA

CITY           SKY/WX    TMP DP  RH WIND       PRES   REMARKS
RAPID CTY ARPT CLOUDY    42  31  64 NW9       29.43R
PIERRE         CLOUDY    37  31  78 CALM      29.40S
CUSTER         MOCLDY    37  30  75 W6        29.45S
ELLSWORTH AFB  CLOUDY    40  31  70 NW9       29.43R
PHILIP         CLOUDY    41  31  67 CALM      29.41S
PINE RIDGE     MOCLDY    40  31  70 SW3       29.45F
WINNER         CLOUDY    49  32  52 SW6       29.44F
$$

SDZ004>011-016>023-039-040-230500-
NORTHEAST SOUTH DAKOTA

CITY           SKY/WX    TMP DP  RH WIND       PRES   REMARKS
ABERDEEN       CLOUDY    34  30  85 S7        29.38S WCI  28
WATERTOWN      MOCLDY    34  31  88 S8        29.39F WCI  27
SISSETON         N/A     33  32  96 S10       29.35F WCI  25
$$

SDZ017-020-022-023-036>040-048>070-230500-
SOUTHEAST SOUTH DAKOTA

CITY           SKY/WX    TMP DP  RH WIND       PRES   REMARKS
SIOUX FALLS    CLOUDY    43  38  82 S12       29.46S
HURON          CLOUDY    37  32  82 S6        29.40F
MITCHELL       CLOUDY    43  34  70 CALM      29.41F
YANKTON        CLOUDY    48  37  66 SW15G25   29.47R
$$

ABBREVIATIONS USED IN REMARKS
   TC - TEMPERATURE IN CELSIUS
  WCI - WIND CHILL INDEX
   HX - HEAT INDEX
  VSB - VISIBILITY




USA.gov is the U.S. government's official web portal to all federal, state and local government web resources and services.